Regional Weather Roundup
Issued by NWS

Home | Current Version | Previous Version | Text Only | Print | Product List | Glossary Off
Versions: 1 2 3 4 5 6 7 8 9 10 11 12 13 14 15 16 17 18 19 20 21 22 23 24 25 26 27 28 29 30 31 32 33 34 35 36 37 38 39 40 41 42 43 44 45 46 47 48 49 50

000
ASUS43 KIND 030309
RWRIN

WEATHER ROUNDUP FOR INDIANA
NATIONAL WEATHER SERVICE INDIANAPOLIS IN
1100 PM EDT SUN AUG 02 2015

NOTE: "FAIR" INDICATES FEW OR NO CLOUDS BELOW 12,000 FEET WITH NO
SIGNIFICANT WEATHER AND/OR OBSTRUCTIONS TO VISIBILITY.

* - STATION DOES NOT REPORT WEATHER SUCH AS PRECIPITATION OR FOG.

+ - STATION NOT QUALITY CONTROLLED BY THE NATIONAL WEATHER SERVICE.
    USE DATA WITH CAUTION...ESPECIALLY DEWPOINT AND RELATIVE
    HUMIDITY OBSERVATIONS.

INZ001>003-010>013-019-020-030400-
NORTHWEST INDIANA

CITY           SKY/WX    TMP DP  RH WIND       PRES   REMARKS
GARY /AIRPORT/ PTCLDY    84  70  61 SW14      29.70R
KNOX *+        PTCLDY    79  64  61 SW14      29.73R
LA PORTE +     MOCLDY    81  70  69 SW16      29.73R
MICHIGAN CITY+ MOCLDY    81  68  65 SW16G23   29.70S
MONTICELLO +   MOCLDY    79  70  73 SW10      29.77R
RENSSELAER +   PTCLDY    79  72  78 SW10      29.76S
VALPARAISO     MOCLDY    81  70  69 SW15      29.73R

$$

LMZ046-743>745-030400-
SOUTHERN LAKE MICHIGAN

STATION/POSITION TIME  TEMP    WIND        PRES    WAVE
                       AIR SEA DIR/SP/G            HT
                 (UTC) (F)     (DEG/KT/KT) (MB)    (FT)
BURNS HARBOR     0240   84     210/ 23     1006.1R
MICHIGAN CITY    0200   83     190/ 21/ 26   N/A
5NW MICH CITY    0300   81 74  230/ 17/ 23   N/A     5

$$

INZ004-005-014>016-021>024-030400-
NORTH CENTRAL INDIANA

CITY           SKY/WX    TMP DP  RH WIND       PRES   REMARKS
GOSHEN         MOCLDY    80  69  69 SW14      29.73R
LOGANSPORT +   PTCLDY    77  64  65 SW13      29.78F
PERU/GRISSOM   CLEAR     78  69  74 SW17      29.77S
ROCHESTER +    PTCLDY    81  72  74 SW13G20   29.77R
SOUTH BEND     CLOUDY    83  68  60 SW15G28   29.72R
WARSAW +       PTCLDY    79  70  73 SW8G17    29.75R

$$

INZ006>009-017-018-025>027-030400-
NORTHEAST INDIANA

CITY           SKY/WX    TMP DP  RH WIND       PRES   REMARKS
ANGOLA *+      PTCLDY    81  68  65 SW14      29.74R
AUBURN +       PTCLDY    81  64  57 SW10G20   29.76R
FORT WAYNE     MOCLDY    78  66  66 S18       29.77F
HUNTINGTON +   PTCLDY    78  67  69 S9        29.77S

$$

INZ028-029-035-036-043>045-051>053-030400-
WEST CENTRAL INDIANA

CITY           SKY/WX    TMP DP  RH WIND       PRES   REMARKS
CRAWFORDSVL +  CLEAR     74  66  75 S9          N/A
GREENCASTLE +  CLEAR     77  63  61 S7        29.86R
LAFAYETTE      CLEAR     78  71  79 SW9       29.78S
TERRE HAUTE    CLEAR     79  70  74 S10       29.84R

$$

INZ030>032-037>040-046>048-054>057-064-065-030400-
CENTRAL INDIANA

CITY           SKY/WX    TMP DP  RH WIND       PRES   REMARKS
FISHERS *+     CLEAR     77  68  73 S14       29.83F
FRANKFORT +    CLEAR     76  70  83 S8        29.83S
GREENWOOD *+   PTCLDY    75  63  64 S8        29.87S
INDIANAPOLIS   CLEAR     77  65  66 S13       29.84S
-EAGLE CREEK   CLEAR     78  66  66 SW9       29.84R
KOKOMO *+      CLEAR     79  66  65 SW20      29.80S
MARION +       PTCLDY    75  65  70 SW10      29.81F
MT COMFORT *+  CLEAR     75  63  64 S9        29.85F
SHELBYVILLE    CLEAR     75  63  66 S9        29.86R
ZIONSVILLE +   CLEAR     78  65  63 S10       29.84F

$$

INZ033-034-041-042-049-050-058-059-030400-
EAST CENTRAL INDIANA

CITY           SKY/WX    TMP DP  RH WIND       PRES   REMARKS
MUNCIE         CLEAR     76  63  64 SW9G18    29.83S

$$

INZ060-061-067>069-081>083-085>088-030400-
SOUTHWEST INDIANA

CITY           SKY/WX    TMP DP  RH WIND       PRES   REMARKS
EVANSVILLE     CLEAR     79  68  69 S5        29.88R
HUNTINGBURG *+ CLEAR     73  63  68 S3        29.89S
WASHINGTON +   CLEAR     75  64  66 S7        29.87S

$$

INZ062-063-066-070>080-084-089>092-030400-
SOUTH CENTRAL AND SOUTHEAST INDIANA

CITY           SKY/WX    TMP DP  RH WIND       PRES   REMARKS
BLOOMINGTON    CLEAR     76  64  66 SW9       29.88R
MADISON *+     CLEAR     70  64  83 CALM      29.93R
NORTH VERNON + CLEAR     72  64  78 S5        29.90R
SEYMOUR +      CLEAR     70  64  83 S5        29.89R

$$




USA.gov is the U.S. government's official web portal to all federal, state and local government web resources and services.